Wind_Speed
36 36 37 38 39 40 40 41 41 40 41 41 41 42 42 43 44 46 46 47 47 48 48 48 49 50 51 53 53 53 54 55 54 51 51 50 50 48 47 46 45 44 43
37 38 38 39 39 40 40 40 40 41 41 42 42 42 43 44 45 45 46 47 48 48 48 49 50 51 51 52 52 52 52 53 53 51 49 48 47 45 44 43 42 41 40
37 38 39 39 40 40 40 40 41 42 42 43 43 43 44 45 46 46 46 47 47 48 48 49 50 51 51 51 51 50 50 49 49 48 46 44 42 42 41 39 38 38 38
38 39 39 40 40 40 40 41 41 42 43 43 43 44 44 45 45 46 46 47 47 47 48 48 49 50 49 49 48 47 47 46 45 44 43 40 38 38 38 37 36 36 36
38 39 39 39 40 40 40 41 41 42 43 44 44 44 44 45 45 45 46 46 46 46 47 47 47 46 46 45 44 44 43 42 41 40 39 38 36 34 35 34 34 33 33
37 38 38 39 39 40 40 41 42 43 44 44 44 43 43 44 45 45 46 46 46 46 45 45 44 43 43 42 41 41 41 40 39 37 36 35 34 31 31 32 32 30 30
37 38 38 38 38 39 40 40 41 42 43 43 42 42 42 43 44 45 45 45 44 44 43 43 42 42 41 40 38 37 37 36 36 35 34 32 32 31 30 29 29 29 28
36 37 37 38 38 39 39 40 40 41 41 41 41 41 42 43 43 43 43 42 41 41 40 40 40 39 39 38 37 36 35 35 35 34 33 32 31 30 28 28 27 27 26
36 36 36 37 37 38 38 38 39 39 39 39 40 40 40 40 40 40 39 38 37 37 37 37 37 37 37 37 36 35 34 33 32 31 31 30 28 28 27 26 25 25 24
35 35 36 36 36 36 36 37 38 39 39 38 38 38 38 38 38 37 36 35 34 34 34 34 35 35 35 35 34 33 32 31 30 29 29 27 26 26 25 24 23 23 23
33 34 35 35 36 36 36 36 37 36 36 36 36 36 36 36 35 34 33 33 32 32 32 33 33 34 34 34 33 32 31 30 28 27 25 24 23 22 22 21 20 20 20
32 33 33 34 34 35 35 35 35 35 34 34 34 34 33 33 32 32 31 31 31 31 31 32 32 33 33 32 31 30 29 28 25 24 22 21 20 20 20 20 19 18 18
32 32 33 33 33 33 34 34 34 34 33 33 33 32 31 30 30 29 29 30 30 31 31 32 32 32 31 29 28 28 28 26 24 22 21 20 19 18 18 17 17 16 16
31 31 32 32 32 33 33 33 33 32 31 31 30 28 27 28 28 29 29 29 30 31 31 31 31 31 29 27 27 26 25 23 21 20 19 17 16 16 15 15 15 15 14
31 31 31 31 32 32 32 31 30 30 29 28 27 27 27 26 27 28 28 29 30 30 30 30 30 28 27 25 24 23 22 20 19 17 16 16 15 16 15 15 15 15 13
30 31 31 31 31 31 30 29 29 28 28 27 26 26 26 27 27 27 28 28 29 30 29 29 28 26 24 23 22 21 19 19 18 17 16 16 16 15 14 13 12 12 11
30 30 30 30 29 29 28 27 27 26 26 26 26 26 27 27 27 27 27 28 28 28 28 27 26 24 22 21 20 19 18 17 16 16 15 15 15 13 12 11 10 10 9
28 28 28 28 28 27 26 26 25 25 24 24 25 26 26 26 26 26 26 27 27 27 26 25 23 20 19 19 17 16 16 15 15 15 14 13 12 11 10 10 10 10 9
26 26 26 26 26 25 24 24 24 23 23 23 23 23 24 25 25 25 25 25 25 25 24 22 19 18 17 16 15 14 14 15 14 13 12 11 9 9 8 9 9 9 9
24 24 24 24 23 23 22 22 22 22 21 21 21 22 24 24 25 25 24 24 24 23 21 19 18 16 15 14 13 13 14 14 12 10 9 8 7 6 5 6 7 8 7
23 23 22 22 21 21 21 21 21 21 21 21 22 23 24 25 25 24 23 23 23 22 20 18 17 15 14 13 12 13 13 12 10 8 7 6 5 5 4 5 6 6 6
21 21 20 20 20 20 20 20 20 20 21 21 22 24 25 25 24 23 22 22 23 21 18 17 16 14 13 12 12 12 11 10 9 7 7 6 6 5 5 5 5 6 5
20 19 19 19 19 20 20 20 20 21 22 22 23 24 24 24 24 23 22 22 21 19 16 15 14 13 12 12 11 11 11 10 9 9 7 6 6 6 6 5 6 6 5
20 19 19 19 20 20 20 20 21 22 22 22 23 24 23 23 22 22 21 21 19 17 16 14 13 12 12 11 11 11 10 9 8 7 6 6 5 5 5 5 5 5 5
20 20 21 20 20 20 21 21 22 22 22 22 22 23 22 21 20 20 19 19 17 15 15 14 13 12 12 11 10 9 8 7 5 5 4 4 3 3 4 4 3 4 5
20 20 20 21 21 20 20 21 21 21 21 22 22 22 21 20 20 19 18 17 15 14 13 12 12 11 10 9 8 6 5 3 3 3 3 2 3 3 3 3 4 4 5
Wind_Direction
273 274 275 277 279 281 282 283 283 284 284 286 287 287 288 289 290 292 293 294 294 294 293 293 293 293 293 294 294 293 291 290 289 289 288 285 284 282 280 279 279 279 277
272 274 275 277 279 281 283 283 283 284 285 287 287 288 288 290 291 292 293 294 295 295 294 293 294 294 295 296 295 293 293 291 290 290 289 285 283 280 279 278 278 278 276
272 274 275 277 279 281 282 282 283 285 286 287 288 288 289 290 291 292 293 295 296 295 295 295 295 295 296 296 296 294 294 292 290 289 289 286 282 279 278 278 277 276 275
273 274 276 278 280 281 281 282 284 285 287 288 288 289 290 291 293 293 293 295 296 296 296 296 297 297 298 298 297 296 295 294 291 288 287 285 283 279 276 276 275 274 273
274 275 276 278 279 280 281 283 284 286 287 288 289 289 290 291 293 295 295 295 295 296 296 297 298 299 299 299 298 297 296 295 293 290 286 285 283 279 277 275 276 275 274
274 275 277 278 279 280 282 283 285 286 287 288 289 290 291 292 293 295 296 296 296 296 296 297 298 299 300 300 300 299 299 297 296 292 289 286 282 280 276 275 276 276 274
275 276 277 278 280 281 282 284 285 287 288 289 289 290 291 293 294 295 297 297 297 296 296 297 298 299 300 300 300 300 301 300 297 293 291 288 283 280 277 275 273 276 275
276 277 278 280 281 282 283 285 286 288 289 289 290 291 293 294 295 296 297 297 297 296 296 298 299 301 302 301 301 301 301 300 297 293 291 288 285 280 277 274 274 275 275
277 278 279 280 282 283 284 285 287 288 289 290 291 292 294 295 295 296 297 298 298 298 298 300 301 303 303 302 302 302 301 299 296 293 290 287 284 279 276 274 274 275 275
277 278 278 279 281 283 284 287 288 289 290 290 291 292 293 295 296 297 298 298 299 299 301 303 304 304 304 305 305 304 301 298 296 293 290 286 281 277 274 272 274 275 277
276 277 278 279 280 282 285 288 289 290 290 290 291 293 294 296 297 298 299 300 300 301 302 304 305 305 305 305 305 305 303 301 298 295 290 284 279 274 270 270 273 274 276
278 278 279 281 282 284 286 288 289 290 291 291 292 294 295 296 297 298 299 300 301 302 304 305 306 306 306 305 305 305 304 302 298 295 291 286 280 272 269 269 271 273 273
279 280 282 283 285 287 288 289 290 290 291 292 294 296 296 296 296 298 299 300 300 302 304 306 306 307 307 306 305 304 304 301 297 293 289 286 280 275 271 268 270 271 272
279 281 283 285 287 289 291 291 290 291 292 293 295 296 296 296 297 298 298 299 300 302 305 305 305 305 306 305 304 304 303 301 298 294 290 285 275 273 273 271 272 272 270
278 281 284 286 288 290 291 291 291 292 293 294 295 296 296 297 298 299 299 300 302 304 304 305 306 305 304 304 304 304 302 302 299 295 292 287 280 277 277 274 270 268 263
278 280 283 285 288 289 290 291 291 292 292 294 295 298 299 300 300 301 302 303 305 306 306 305 305 304 304 304 304 304 301 300 299 296 293 289 285 282 279 274 267 259 255
279 281 282 285 287 289 290 290 291 293 295 295 296 298 301 301 301 302 303 305 306 308 308 307 306 304 304 305 305 304 302 302 301 300 295 291 287 283 275 266 258 255 251
279 280 282 284 286 287 289 290 292 294 296 297 298 300 302 302 302 303 305 307 308 309 309 308 306 303 304 306 305 304 305 305 303 301 297 294 289 281 269 257 253 250 246
279 281 283 285 286 286 287 289 291 294 296 297 299 300 302 303 303 305 306 308 309 309 308 307 305 303 303 305 306 305 306 306 304 299 298 297 289 277 264 249 241 235 238
281 283 284 285 286 287 287 289 291 293 297 299 301 302 304 305 305 304 305 307 308 309 308 306 304 304 304 305 305 306 308 308 305 298 296 291 282 270 253 236 228 230 238
282 283 284 285 285 286 288 290 290 293 295 298 301 304 306 308 307 305 303 303 306 307 305 303 303 303 304 304 305 307 308 308 304 296 294 287 274 256 238 232 233 233 233
283 284 283 282 284 287 289 290 291 294 296 299 302 305 307 309 308 306 304 304 307 306 302 300 299 298 299 301 304 304 304 304 301 292 287 280 267 249 243 242 240 232 227
282 283 283 283 286 288 289 291 293 296 299 302 304 306 307 308 307 305 303 303 304 300 296 297 298 296 297 299 300 299 298 296 293 282 272 262 254 250 247 240 237 240 237
281 284 285 286 288 288 290 292 294 297 299 301 303 306 308 309 308 306 302 302 300 295 292 292 292 291 294 298 299 299 297 294 290 277 263 258 255 247 238 233 237 236 222
281 284 287 289 288 288 289 290 292 295 298 301 305 307 308 307 306 304 302 301 297 291 287 286 286 287 291 296 298 299 299 293 279 258 248 250 242 223 213 211 209 202 188
281 284 285 286 287 289 290 291 293 296 299 302 305 306 305 304 303 302 301 298 294 291 287 286 286 286 288 291 294 294 292 278 257 230 220 221 205 187 181 173 167 161 158
Height
5655 5654 5653 5652 5650 5649 5647 5645 5643 5641 5639 5637 5635 5633 5630 5628 5625 5621 5618 5614 5610 5606 5602 5598 5594 5589 5585 5581 5576 5571 5567 5562 5559 5561 5559 5556 5552 5550 5549 5547 5546 5545 5544
5646 5645 5644 5642 5640 5639 5637 5635 5633 5631 5629 5627 5624 5622 5620 5617 5613 5610 5606 5602 5598 5594 5590 5586 5582 5577 5573 5568 5563 5558 5554 5549 5545 5544 5544 5541 5538 5536 5535 5534 5533 5532 5532
5636 5635 5634 5632 5630 5629 5627 5625 5623 5620 5618 5616 5614 5611 5609 5606 5602 5599 5595 5591 5587 5583 5578 5574 5569 5564 5560 5555 5550 5545 5541 5536 5532 5529 5528 5527 5525 5523 5522 5522 5522 5521 5521
5626 5625 5624 5622 5620 5618 5616 5614 5612 5610 5608 5605 5603 5600 5597 5594 5591 5587 5584 5580 5576 5572 5567 5562 5557 5552 5547 5542 5538 5533 5529 5525 5521 5518 5516 5514 5513 5512 5511 5511 5512 5511 5511
5616 5615 5613 5612 5610 5608 5606 5604 5601 5599 5597 5594 5592 5589 5586 5583 5579 5576 5573 5569 5565 5561 5556 5551 5546 5540 5535 5530 5526 5522 5518 5514 5510 5507 5505 5504 5503 5501 5501 5501 5501 5501 5501
5605 5604 5603 5601 5599 5597 5595 5593 5590 5588 5586 5583 5580 5578 5575 5572 5568 5565 5561 5557 5553 5549 5545 5541 5536 5531 5526 5521 5516 5512 5507 5503 5499 5497 5495 5493 5493 5492 5491 5491 5491 5492 5493
5595 5594 5592 5591 5589 5587 5585 5582 5580 5577 5575 5572 5570 5567 5564 5561 5557 5554 5549 5545 5542 5539 5534 5530 5526 5521 5516 5512 5508 5504 5499 5494 5490 5488 5486 5484 5483 5483 5483 5483 5483 5483 5484
5585 5584 5582 5580 5579 5576 5574 5572 5569 5567 5564 5562 5559 5557 5554 5551 5547 5543 5539 5535 5532 5528 5524 5520 5517 5513 5508 5503 5500 5496 5491 5487 5483 5480 5478 5477 5475 5475 5474 5475 5475 5476 5476
5575 5574 5572 5570 5568 5566 5564 5561 5559 5557 5554 5552 5549 5547 5544 5541 5537 5533 5529 5526 5523 5520 5516 5512 5508 5504 5500 5495 5491 5488 5484 5479 5475 5472 5470 5469 5468 5467 5467 5467 5468 5469 5470
5565 5564 5562 5561 5559 5557 5554 5552 5549 5547 5545 5542 5540 5537 5534 5532 5528 5524 5521 5518 5515 5512 5509 5504 5500 5496 5492 5487 5483 5479 5476 5472 5469 5466 5464 5462 5461 5460 5460 5460 5461 5462 5463
5556 5555 5553 5551 5549 5547 5545 5543 5540 5537 5535 5533 5531 5528 5526 5523 5519 5516 5513 5510 5507 5504 5501 5498 5493 5488 5484 5479 5475 5471 5467 5464 5461 5459 5457 5455 5454 5454 5455 5455 5455 5456 5457
5547 5545 5544 5542 5540 5538 5536 5534 5531 5529 5527 5524 5522 5520 5517 5514 5511 5508 5505 5502 5499 5496 5493 5490 5486 5481 5477 5473 5469 5465 5461 5457 5455 5453 5450 5449 5449 5449 5449 5450 5450 5451 5451
5538 5537 5535 5533 5531 5530 5528 5525 5523 5520 5518 5516 5514 5512 5510 5507 5504 5501 5499 5495 5492 5489 5486 5482 5478 5474 5470 5466 5463 5459 5455 5452 5449 5447 5445 5444 5444 5444 5444 5445 5445 5446 5446
5530 5528 5527 5525 5523 5521 5519 5517 5515 5512 5510 5508 5506 5504 5502 5500 5497 5495 5492 5489 5486 5482 5478 5475 5471 5467 5463 5460 5456 5453 5450 5446 5444 5442 5441 5440 5439 5439 5439 5440 5441 5441 5442
5521 5520 5519 5517 5515 5513 5511 5509 5507 5505 5502 5501 5499 5497 5495 5493 5490 5487 5484 5482 5479 5475 5471 5468 5464 5461 5457 5454 5451 5447 5444 5442 5439 5438 5436 5435 5435 5435 5435 5435 5436 5437 5438
5513 5512 5510 5509 5507 5506 5503 5502 5499 5497 5495 5493 5491 5490 5488 5485 5483 5480 5477 5474 5471 5467 5464 5461 5457 5454 5451 5448 5445 5443 5440 5438 5436 5434 5433 5432 5431 5431 5431 5431 5432 5433 5434
5504 5503 5502 5501 5499 5498 5496 5494 5493 5491 5489 5487 5485 5483 5481 5478 5475 5473 5470 5467 5464 5460 5457 5454 5451 5448 5445 5443 5440 5438 5436 5434 5432 5431 5430 5429 5428 5427 5427 5428 5429 5430 5431
5496 5495 5494 5493 5491 5490 5488 5487 5486 5485 5483 5481 5479 5476 5474 5471 5469 5466 5464 5461 5458 5454 5451 5448 5445 5443 5440 5438 5436 5434 5432 5431 5429 5427 5426 5425 5424 5423 5424 5424 5425 5427 5428
5488 5487 5486 5485 5484 5482 5481 5480 5479 5478 5476 5475 5473 5471 5468 5466 5463 5460 5457 5455 5452 5449 5446 5443 5440 5438 5436 5434 5432 5430 5429 5428 5426 5424 5423 5422 5421 5421 5421 5421 5422 5424 5426
5480 5479 5478 5478 5477 5476 5475 5474 5473 5472 5470 5469 5467 5465 5463 5460 5457 5454 5451 5449 5446 5443 5441 5438 5436 5434 5432 5430 5429 5427 5426 5425 5423 5422 5421 5420 5419 5419 5419 5420 5421 5422 5424
5474 5473 5472 5471 5470 5470 5469 5468 5467 5466 5465 5463 5461 5459 5456 5454 5451 5448 5446 5443 5441 5438 5435 5433 5432 5430 5428 5427 5426 5424 5423 5422 5421 5420 5419 5419 5418 5418 5418 5419 5420 5421 5422
5468 5467 5466 5466 5465 5464 5464 5463 5462 5460 5459 5458 5456 5453 5450 5448 5445 5443 5440 5437 5435 5433 5430 5429 5428 5426 5425 5424 5422 5421 5420 5419 5418 5418 5417 5417 5417 5417 5418 5418 5418 5419 5420
5462 5462 5461 5460 5460 5459 5458 5457 5456 5455 5453 5451 5449 5447 5445 5442 5439 5437 5434 5432 5430 5428 5426 5425 5424 5422 5421 5420 5419 5418 5417 5416 5416 5415 5415 5415 5415 5416 5416 5416 5417 5418 5418
5457 5456 5456 5455 5454 5453 5452 5451 5450 5449 5447 5445 5443 5441 5438 5436 5433 5431 5429 5427 5425 5423 5422 5421 5420 5419 5418 5417 5416 5415 5414 5414 5413 5413 5413 5413 5413 5414 5414 5415 5415 5416 5416
5451 5450 5450 5449 5448 5447 5446 5445 5444 5442 5441 5439 5437 5435 5432 5430 5427 5425 5424 5422 5420 5419 5417 5416 5416 5415 5414 5413 5413 5412 5411 5411 5411 5411 5411 5412 5412 5413 5413 5414 5414 5415 5416
5445 5444 5444 5443 5442 5441 5440 5439 5438 5436 5434 5433 5430 5428 5426 5424 5422 5420 5419 5417 5416 5414 5413 5412 5412 5411 5411 5410 5410 5409 5409 5409 5410 5410 5411 5411 5412 5412 5413 5414 5414 5415 5416